DW8534 Weather Reports


Display with metric or nautical units.
time (UTC)temp
F
wind
direction
speed
MPH
gust
MPH
rain 1hr
in
rain 24hr
in
rain mn
in
humidity
%
barometer
mb
20260904081510 76 111 1.0 0.0 0.00 0.00 0.00 90 1008.9
20260904080009 76 111 1.0 0.0 0.00 0.00 0.00 90 1008.9
20260904074514 76 111 1.0 0.0 0.00 0.00 0.00 90 1008.9
20260904073006 76 111 1.0 0.0 0.00 0.00 0.00 90 1008.9
20260904071505 76 111 2.0 0.0 0.00 0.00 0.00 89 1008.9
20260904070010 76 109 2.0 0.0 0.00 0.00 0.00 89 1009.1
20260904064503 76 111 2.0 0.0 0.00 0.00 0.00 89 1009.3
20260904063002 77 119 2.0 0.0 0.00 0.00 0.00 89 1009.2
20260904061501 77 121 2.0 0.0 0.00 0.00 0.00 88 1008.9
20260904060100 77 120 2.0 0.0 0.00 0.00 0.00 88 1009.1
20260904054600 77 123 3.0 0.0 0.00 0.00 0.00 88 1009.3
20260904053058 77 101 3.0 0.0 0.00 0.00 0.00 87 1009.1
20260904051558 77 115 3.0 0.0 0.00 0.00 0.00 86 1009.1
20260904050054 77 137 4.0 0.0 0.00 0.00 0.00 85 1009.1
20260904044554 78 126 4.0 0.0 0.00 0.00 0.00 84 1009.2
20260904043057 78 119 3.0 0.0 0.00 0.00 0.00 83 1009.2
20260904041556 78 112 3.0 0.0 0.00 0.00 0.00 82 1009.4
20260904040052 78 105 4.0 0.0 0.00 0.00 0.00 81 1009.4
20260904034557 78 87 5.0 0.0 0.00 0.00 0.00 80 1009.4
20260904033051 78 109 4.0 0.0 0.00 0.00 0.00 78 1009.2
20260904031551 79 107 4.0 0.0 0.00 0.00 0.00 76 1009.3
20260904030050 79 104 3.0 0.0 0.00 0.00 0.00 75 1009.0
20260904024552 79 100 4.0 0.0 0.00 0.00 0.00 74 1008.8
20260904023056 80 103 4.0 0.0 0.00 0.00 0.00 75 1008.6
20260904021549 80 110 4.0 0.0 0.00 0.00 0.00 75 1008.3
20260904020049 80 104 4.0 0.0 0.00 0.00 0.00 76 1008.1
20260904014549 81 109 4.0 0.0 0.00 0.00 0.00 76 1007.9
20260904013048 81 112 5.0 0.0 0.00 0.00 0.00 75 1007.8
20260904011606 82 109 4.0 0.0 0.00 0.00 0.00 74 1007.7
20260904010052 82 122 7.0 0.0 0.00 0.00 0.00 75 1007.6
20260904004547 84 111 7.0 0.0 0.00 0.00 0.00 73 1007.7
20260904003046 85 118 5.0 0.0 0.00 0.00 0.00 66 1007.6
20260904001547 86 109 5.0 0.0 0.00 0.00 0.00 63 1007.4
20260904000052 86 121 6.0 0.0 0.00 0.00 0.00 61 1007.2
20260903234547 87 151 5.0 0.0 0.00 0.00 0.00 60 1007.2
20260903233044 87 131 6.0 0.0 0.00 0.00 0.00 62 1007.1
20260903231547 87 116 5.0 0.0 0.00 0.00 0.00 62 1007.1
20260903230047 88 111 7.0 0.0 0.00 0.00 0.00 62 1007.1
20260903224544 88 136 5.0 0.0 0.00 0.00 0.00 62 1007.0
20260903223043 88 132 6.0 0.0 0.00 0.00 0.00 63 1007.1
20260903221542 88 109 5.0 0.0 0.00 0.00 0.00 63 1007.0
20260903220041 87 112 4.0 0.0 0.00 0.00 0.00 65 1007.1
20260903214543 87 102 4.0 0.0 0.00 0.00 0.00 66 1007.1
20260903213052 88 100 5.0 0.0 0.00 0.00 0.00 65 1007.1
20260903211545 87 107 5.0 0.0 0.00 0.00 0.00 66 1007.3
20260903210039 88 138 5.0 0.0 0.00 0.00 0.00 66 1007.4
20260903204538 88 150 6.0 0.0 0.00 0.00 0.00 64 1007.6
20260903203103 90 143 5.0 0.0 0.00 0.00 0.00 62 1007.7
20260903201538 88 146 5.0 0.0 0.00 0.00 0.00 65 1007.7
20260903200034 88 152 6.0 0.0 0.00 0.00 0.00 65 1007.7
20260903194536 88 144 7.0 0.0 0.00 0.00 0.00 66 1007.8
20260903193037 87 193 7.0 0.0 0.00 0.00 0.00 67 1008.0
20260903191532 87 174 7.0 0.0 0.00 0.00 0.00 68 1008.2
20260903190031 88 152 9.0 0.0 0.00 0.00 0.00 67 1008.6
20260903184531 87 130 8.0 0.0 0.00 0.00 0.00 70 1008.7
20260903183028 85 180 9.0 0.0 0.00 0.00 0.00 71 1009.1
20260903181523 84 140 8.0 0.0 0.00 0.00 0.00 75 1009.2
20260903180025 83 144 9.0 0.0 0.00 0.00 0.00 76 1009.3
20260903174524 83 145 8.0 0.0 0.00 0.00 0.00 77 1009.6
20260903173020 83 127 9.0 0.0 0.00 0.00 0.00 77 1009.8
20260903171520 83 146 9.0 0.0 0.00 0.00 0.00 77 1009.8
20260903170018 83 136 8.0 0.0 0.00 0.00 0.00 79 1009.8
20260903164518 84 118 8.0 0.0 0.00 0.00 0.00 78 1009.8
20260903163016 83 128 7.0 0.0 0.00 0.00 0.00 79 1009.8
20260903161515 83 146 6.0 0.0 0.00 0.00 0.00 79 1009.7
20260903160014 83 147 6.0 0.0 0.00 0.00 0.00 80 1009.8
20260903154511 82 142 6.0 0.0 0.00 0.00 0.00 81 1009.7
20260903153010 82 139 6.0 0.0 0.00 0.00 0.00 82 1009.7
20260903151508 81 136 5.0 0.0 0.00 0.00 0.00 83 1009.4
20260903150011 81 144 5.0 0.0 0.00 0.00 0.00 83 1009.7
20260903144525 81 107 4.0 0.0 0.00 0.00 0.00 84 1009.5
20260903143005 80 118 5.0 0.0 0.00 0.00 0.00 84 1009.3
20260903141501 80 131 5.0 0.0 0.00 0.00 0.00 86 1009.2
20260903140100 79 141 4.0 0.0 0.00 0.00 0.00 88 1009.4
20260903134559 78 97 5.0 0.0 0.00 0.00 0.00 89 1009.3
20260903133101 77 109 3.0 0.0 0.00 0.00 0.00 89 1009.2
20260903131556 77 116 3.0 0.0 0.00 0.00 0.00 89 1009.1
20260903130057 76 107 2.0 0.0 0.00 0.00 0.00 90 1009.2
20260903124607 75 101 3.0 0.0 0.00 0.00 0.00 90 1009.2
20260903123056 75 104 2.0 0.0 0.00 0.00 0.00 90 1009.0
20260903121600 75 103 3.0 0.0 0.00 0.00 0.00 89 1008.8
20260903120101 75 103 3.0 0.0 0.00 0.00 0.00 89 1008.7
20260903114553 75 102 2.0 0.0 0.00 0.00 0.00 89 1008.7
20260903113130 75 101 3.0 0.0 0.00 0.00 0.00 89 1008.7
20260903111552 75 100 3.0 0.0 0.00 0.00 0.00 89 1008.7
20260903110056 75 103 1.0 0.0 0.00 0.00 0.00 88 1008.7
20260903104601 75 103 1.0 0.0 0.00 0.00 0.00 88 1008.5
20260903103050 75 102 1.0 0.0 0.00 0.00 0.00 87 1008.4
20260903101552 75 102 2.0 0.0 0.00 0.00 0.00 87 1008.4
20260903100048 75 101 4.0 0.0 0.00 0.00 0.00 86 1008.7
20260903094553 75 105 2.0 0.0 0.00 0.00 0.00 86 1008.7
20260903093047 75 105 1.0 0.0 0.00 0.00 0.00 85 1008.7
20260903091551 76 105 2.0 0.0 0.00 0.00 0.00 85 1008.7
20260903090049 76 106 0.0 0.0 0.00 0.00 0.00 85 1008.3
20260903084548 76 106 1.0 0.0 0.00 0.00 0.00 86 1008.3
20260903083045 76 106 1.0 0.0 0.00 0.00 0.00 85 1008.3
20260903081545 76 106 1.0 0.0 0.00 0.00 0.00 85 1008.4